Location: Lecco
(45.8566°N, 9.3977°E)
Time: 14:37:02
(UTC+02:00)

S-56A Canister/Altair - Pass Details

Date: 25 July 2019
Orbit: 633 x 2499 km, 38.9° (Epoch: 18 August)

Event Time Altitude Azimuth Distance (km) Brightness Sun altitude
Rises 13:51:43 0° 283° (WNW) 6,034 12.1 63.4°
Reaches altitude 10° 13:56:40 10° 271° (W) 5,130 11.9 63.2°
Maximum altitude 14:07:14 24° 226° (SW) 4,056 12.1 62.6°
Drops below altitude 10° 14:17:14 10° 180° (S) 4,787 12.1 62.0°
Sets 14:21:42 0° 167° (SSE) 5,553 12.2 61.6°
